Вернуться в каталог

STARLINK-30954

АктивенСвязьVLEO
NORAD 58407·PAYLOAD·🇺🇸 United States

Запущен Nov 22, 2023 с Cape Canaveral Space Force Station

Loading…

Ближайшие Пролёты (ближайшие 24 часа)

TLE

СвежийSource: CelesTrak SupGP

Эпоха: Sep 14, 2026, 22:46 UTC

1 58407C 23180F   26257.94909722  .00057822  00000+0  20940-2 0  2579
2 58407  43.0004  63.6016 0001558 276.4035  25.8569 15.27554239    14

Отслеживайте STARLINK-30954 в реальном времени с AllMySat

Download on the App Store